Location: ??
(35.5052°N, 139.7262°E)
Time: 03:44:02
(UTC+00:00)

ADEOS II - Pass Details

Date: 20 June 2021
Orbit: 800 x 800 km, 98.6° (Epoch: 26 July)

Event Time Altitude Azimuth Distance (km) Brightness Sun altitude
Rises 16:36:31 0° 16° (NNE) 3,314 6.6 -25.2°
Reaches altitude 10° 16:38:53 10° 19° (NNE) 2,380 5.6 -25.0°
Maximum altitude 16:44:07 68° 101° (ESE) 861 2.2 -24.4°
Enters shadow 16:45:12 53° 159° (SSE) 977 2.2 -24.3°
